THORAD AGENA D DEB, 4706

Orbit data source: Space-Track

THORAD AGENA D DEB, 4706 is space debris in SSO originally from a launch on Wed, 08 Apr 1970 UTC launched from the Air Force Western Test Range (AFWTR). Debris objects in space refer to the collection of defunct objects orbiting the Earth. Examples of debris include non-operational satellites, rocket bodies, and fragments generated from explosions, collisions, or faulty payload assembly.

Loading next visibility...
Identifier
4706, 1970-025BU
Orbit
SSO
Country
Flag of USUS
Related business
Manufacturer
Unknown
Mission
Spacecraft
Bus & Motor
Unknown
Mass
Unknown
Launch date (UTC)
1970-04-08 (56 years ago)
Launch vehicle
Unknown
Launch site
Air Force Western Test Range (AFWTR)
Object type
Payload
Rocket body
Debris
Shape & HBR
Unknown shape, 0.1 m
Radar Cross Section
Small (<0.1 m²)

Expand to show TLE details & history
Last TLE update: 6 hours ago

TLE from 6 hours ago
0 THORAD AGENA D DEB
1 04706U 70025BU  25298.23889757  .00000079  00000-0  20525-3 0  9999
2 04706  99.7967 196.9876 0033393 261.3580 252.4250 13.45824470725808
Epoch: 2025-10-25T05:44Z
TLE epoch observation values (Epoch: 2025-10-25T05:44:00.750Z)
Latitude
26.19827°
Longitude
-98.03924°
Altitude
1,098.329 km
Speed
7.302 km/s
True Right ascension
01h 27m 20s
True Declination
26° 04' 07"
Sunlit
Object was in full shadow at epoch
Visualization orbit readout
Latitude
Unknown
Longitude
Unknown
Altitude
Unknown
Speed
Unknown
Apparent Right ascension
Unknown
Apparent Declination
Unknown
Sunlit
N/A
Visualization observer readout
Local Sidereal Time
07:14:35
Azimuth
Unknown
Elevation
Unknown
Doppler factor
Unknown
Orbital elements
Apogee altitude
1,109.894 km
Perigee altitude
1,060.051 km
Semi-major axis
7,463.11 km
Eccentricity
0.00334
Inclination
99.7967°
RAAN
196.9876°
Arg. of periapsis
261.358°
True anomaly
252.06067°
Mean anomaly
252.425°
Eccentric anomaly
252.24279°
Mean motion
3.36638 °/min
Orbital period
106.94 mins
BSTAR
0.00020525

Documentation

Showing up to 5 results
|